Дата Пункты Температура Давл., мм. Влажн., % Ветер Погодные явления
Воздуха Воды Направл. Скорость
17.11.18 05:00 Одесса 2.0 8.0 770 82 Пн-С 6 05 ГОДИН
17.11.18 02:00 Одесса 1.0 8.0 770 88 Пн-С 7 02 ГОДИНИ
16.11.18 08:00 Одесса 1.0 8.0 769 95 Пн-С 11 20 ГОДИН
16.11.18 02:00 Одесса 2.0 8.0 768 77 Пн-С 7 14 ГОДИН
16.11.18 11:00 Одесса 1.0 8.0 768 75 Пн-С 9 11 ГОДИН
16.11.18 05:00 Одесса 1.0 8.0 767 67 Пн 6 05 ГОДИН
16.11.18 02:00 Одесса 2.0 8.0 767 67 Пн 5 02 ГОДИНИ
15.11.18 11:00 Одесса 3.0 8.0 766 69 Пн-С 5 23 ГОДИНИ
15.11.18 08:00 Одесса 4.0 8.0 766 83 Пн-С 10 20 ГОДИН
15.11.18 05:00 Одесса 3.0 9.0 765 87 Пн-С 10 17 ГОДИН
15.11.18 02:00 Одесса 3.0 9.0 764 94 Пн 4 14 ГОДИН
15.11.18 11:00 Одесса 2.0 9.0 764 95 Пн 3 11 ГОДИН
15.11.18 08:00 Одесса 1.0 9.0 764 95 Пн 2 08 ГОДИН
15.11.18 05:00 Одесса 1.0 9.0 764 95 Пн 2 05 ГОДИН
15.11.18 02:00 Одесса 1.0 9.0 764 95 Пн-З 2 02 ГОДИНИ
14.11.18 05:00 Одесса 1.0 9.0 766 75 Пн 3 17 ГОДИН
14.11.18 02:00 Одесса 2.0 9.0 767 78 Пн 2 14 ГОДИН
14.11.18 11:00 Одесса 1.0 10.0 768 87 С 5 11 ГОДИН
14.11.18 08:00 Одесса 1.0 10.0 768 90 Пн-С 7 08 ГОДИН
14.11.18 05:00 Одесса 1.0 10.0 769 85 С 5 05 ГОДИН
Количество строк
1 2 3 4 5 6 7 8 9 10
Page 1 of 426